Flag for U.S.A. Weather past 2 weeks in Paradise, Nevada, U.S.A.

Now
76 °F

Broken clouds.


Feels Like: 77 °F
Forecast: 54 / 72 °F
Wind: 17 mph from Southwest

Location: McCarran International Airport

Current Time: Apr 24, 2015 at 7:06:03 PM

Latest Report: Apr 24, 2015 at 5:56 PM


Visibility: 10 mi

Pressure: 29.61 "Hg

Humidity: 23%

Dew point: 35 °F

Location of ParadiseLocation

Historic Weather in Paradise — Graph

°F

Paradise temperature yesterday

Maximum temperature yesterday: 76 °F (at 11:56 AM)
Minimum temperature yesterday: 61 °F (at 3:56 AM)
Average temperature yesterday: 69 °F

Past Weeks' High & Low Weather Summary

 TemperatureHumidityPressure
High89 °F (Apr 13, 3:56 PM)49% (Apr 24, 5:56 AM)30.13 "Hg (Apr 24, 5:56 AM)
Low49 °F (Apr 15, 5:56 AM)3% (Apr 21, 4:56 PM)29.59 "Hg (Apr 20, 5:56 PM)
Average71 °F15%29.81 "Hg
* Reported Apr 9 5:56 PM — Apr 24 5:56 PM, Paradise, Weather by CustomWeather, © 2015

Note: Actual official high and low records may vary slightly from our data, if they occured in-between our weather recording intervals... More about our weather records

Advertising

Paradise weather history for previous 24 hours

 ConditionsComfort  
Time TempWeatherWind HumidityBarometerVisibility
5:56 PM
Fri, Apr 24
76 °FBroken clouds.17 mph23%29.61 "Hg10 mi
3:56 PM76 °FScattered clouds.24 mph24%29.61 "Hg10 mi
2:56 PM77 °FScattered clouds.23 mph24%29.63 "Hg10 mi
1:56 PM76 °FScattered clouds.21 mph24%29.65 "Hg10 mi
12:56 PM75 °FScattered clouds.20 mph27%29.67 "Hg10 mi
11:56 AM74 °FScattered clouds.22 mph28%29.69 "Hg10 mi
10:56 AM72 °FScattered clouds.16 mph33%29.71 "Hg10 mi
9:56 AM69 °FScattered clouds.18 mph36%29.72 "Hg10 mi
8:56 AM66 °FScattered clouds.18 mph40%29.71 "Hg10 mi
7:56 AM62 °FScattered clouds.17 mph46%29.70 "Hg10 mi
6:56 AM61 °FSunny.13 mph46%29.70 "Hg10 mi
5:56 AM59 °FPassing clouds.10 mph49%29.68 "Hg10 mi
4:56 AM60 °FPassing clouds.12 mph46%29.67 "Hg10 mi
3:56 AM61 °FPassing clouds.9 mph42%29.66 "Hg10 mi
2:56 AM62 °FPassing clouds.9 mph41%29.65 "Hg10 mi
1:56 AM63 °FPassing clouds.14 mph40%29.65 "Hg10 mi
12:56 AM64 °FPassing clouds.13 mph37%29.66 "Hg10 mi
11:56 PM
Thu, Apr 23
66 °FPassing clouds.15 mph34%29.67 "Hg10 mi
10:56 PM66 °FPassing clouds.13 mph34%29.68 "Hg10 mi
9:56 PM67 °FPassing clouds.13 mph33%29.69 "Hg10 mi
8:56 PM68 °FPassing clouds.17 mph31%29.69 "Hg10 mi
7:56 PM68 °FScattered clouds.20 mph31%29.67 "Hg10 mi
Weather by CustomWeather, © 2015

See weather overviewHow to use our weather pages